Flag for Mexico Weather past 2 weeks in Ojinaga, Chihuahua, Mexico

Now
36 °F

Clear.


Feels Like: 31 °F
Forecast: 43 / 88 °F
Wind: 6 mph from North

Location: Marfa Municipal Airport

Current Time: Mar 28, 2015 at 7:02:00 AM

Latest Report: Mar 28, 2015 at 6:35 AM


Visibility: 10 mi

Pressure: 30.23 "Hg

Humidity: 75%

Dew point: 28 °F

Location of OjinagaLocation

Historic Weather in Ojinaga — Graph

°F

Ojinaga temperature yesterday

Maximum temperature yesterday: 73 °F (at 2:35 PM)
Minimum temperature yesterday: 28 °F (at 5:35 AM)
Average temperature yesterday: 51 °F

Past Weeks' High & Low Weather Summary

 TemperatureHumidityPressure
High77 °F (Mar 24, 2:35 PM)100% (Mar 17, 11:15 PM)30.38 "Hg (Mar 17, 11:15 PM)
Low28 °F (Mar 27, 5:35 AM)12% (Mar 25, 4:35 PM)30.01 "Hg (Mar 25, 5:15 PM)
Average52 °F64%30.19 "Hg
* Reported Mar 13 5:15 AM — Mar 28 5:55 AM, Ojinaga, Weather by CustomWeather, © 2015

Note: Actual official high and low records may vary slightly from our data, if they occured in-between our weather recording intervals... More about our weather records

Advertising

Ojinaga weather history for previous 24 hours

 ConditionsComfort  
Time TempWeatherWind HumidityBarometerVisibility
5:55 AM
Sat, Mar 28
36 °FClear.6 mph75%30.22 "Hg10 mi
5:35 AM36 °FClear.5 mph75%30.22 "Hg10 mi
5:15 AM36 °FClear.5 mph75%30.22 "Hg10 mi
4:55 AM36 °FClear.5 mph75%30.22 "Hg10 mi
4:35 AM37 °FClear.5 mph70%30.22 "Hg10 mi
4:15 AM37 °FClear.5 mph70%30.22 "Hg10 mi
3:55 AM37 °FClear.7 mph75%30.22 "Hg10 mi
3:35 AM39 °FClear.8 mph65%30.22 "Hg10 mi
3:15 AM39 °FClear.8 mph70%30.23 "Hg10 mi
2:55 AM39 °FClear.9 mph70%30.23 "Hg10 mi
2:35 AM39 °FClear.9 mph70%30.23 "Hg10 mi
2:15 AM39 °FClear.8 mph70%30.24 "Hg10 mi
1:55 AM37 °FClear.6 mph75%30.25 "Hg10 mi
1:35 AM37 °FClear.6 mph75%30.25 "Hg10 mi
1:15 AM39 °FClear.6 mph70%30.25 "Hg10 mi
12:55 AM37 °FClear.7 mph75%30.25 "Hg10 mi
12:35 AM39 °FClear.5 mph75%30.25 "Hg10 mi
12:15 AM39 °FClear.6 mph75%30.25 "Hg10 mi
11:55 PM
Fri, Mar 27
39 °FClear.6 mph70%30.26 "Hg10 mi
11:35 PM39 °FClear.6 mph70%30.26 "Hg10 mi
11:15 PM43 °FClear.3 mph61%30.26 "Hg10 mi
10:55 PM43 °FClear.5 mph61%30.26 "Hg10 mi
10:35 PM45 °FClear.No wind57%30.26 "Hg10 mi
9:35 PM48 °FClear.5 mph46%30.26 "Hg10 mi
9:15 PM54 °FClear.3 mph35%30.26 "Hg10 mi
8:55 PM55 °FClear.6 mph31%30.25 "Hg10 mi
8:35 PM55 °FClear.6 mph31%30.24 "Hg10 mi
8:15 PM55 °FClear.5 mph33%30.24 "Hg10 mi
7:55 PM57 °FSunny.6 mph29%30.24 "Hg10 mi
7:35 PM61 °FSunny.5 mph25%30.23 "Hg10 mi
7:15 PM63 °FSunny.8 mph24%30.23 "Hg10 mi
6:55 PM66 °FSunny.7 mph19%30.23 "Hg10 mi
6:35 PM70 °FSunny.9 mph16%30.22 "Hg10 mi
6:15 PM72 °FSunny.9 mph15%30.22 "Hg10 mi
5:55 PM72 °FSunny.8 mph15%30.22 "Hg10 mi
5:35 PM72 °FSunny.8 mph15%30.23 "Hg10 mi
5:15 PM73 °FSunny.9 mph14%30.23 "Hg10 mi
4:55 PM73 °FSunny.13 mph15%30.23 "Hg10 mi
4:35 PM73 °FSunny.12 mph15%30.23 "Hg10 mi
4:15 PM72 °FSunny.3 mph17%30.23 "Hg10 mi
3:55 PM73 °FSunny.8 mph17%30.24 "Hg10 mi
3:15 PM73 °FSunny.12 mph17%30.24 "Hg10 mi
2:55 PM72 °FSunny.7 mph17%30.25 "Hg10 mi
2:35 PM73 °FSunny.12 mph17%30.27 "Hg10 mi
2:15 PM72 °FSunny.7 mph19%30.28 "Hg10 mi
1:55 PM72 °FSunny.9 mph19%30.29 "Hg10 mi
1:35 PM72 °FSunny.9 mph19%30.30 "Hg10 mi
1:15 PM70 °FSunny.10 mph20%30.30 "Hg10 mi
12:55 PM70 °FSunny.5 mph20%30.31 "Hg10 mi
12:35 PM70 °FSunny.13 mph20%30.32 "Hg10 mi
12:15 PM68 °FSunny.15 mph21%30.32 "Hg10 mi
11:55 AM66 °FSunny.13 mph22%30.33 "Hg10 mi
11:35 AM66 °FSunny.12 mph21%30.34 "Hg10 mi
11:15 AM66 °FSunny.8 mph21%30.34 "Hg10 mi
10:55 AM64 °FSunny.8 mph22%30.34 "Hg10 mi
10:35 AM63 °FSunny.9 mph30%30.34 "Hg10 mi
10:15 AM61 °FSunny.8 mph36%30.34 "Hg10 mi
9:55 AM55 °FSunny.5 mph47%30.34 "Hg10 mi
9:35 AM54 °FSunny.No wind51%30.35 "Hg10 mi
9:15 AM52 °FSunny.No wind50%30.34 "Hg10 mi
8:55 AM48 °FSunny.3 mph62%30.34 "Hg10 mi
8:35 AM46 °FSunny.No wind62%30.33 "Hg10 mi
7:55 AM39 °FSunny.No wind87%30.32 "Hg10 mi
7:35 AM34 °FClear.3 mph87%30.31 "Hg10 mi
7:15 AM30 °FClear.3 mph86%30.32 "Hg10 mi
Weather by CustomWeather, © 2015

See weather overviewHow to use our weather pages